ALTER71 KSZL-KMEM

Flight info

Callsign ALTER71
Flight time 0h 49m
Altitude 37000
Route ULMAN ARG DAWGG2
Aircraft B742/H-SDFHIRWXY/L

Departure

Time 2026-04-22 19:37
Airport Whiteman Air Force Base (KSZL)

Arrival

Time 2026-04-22 20:26
Airport Memphis International Airport (KMEM)
Time Latitude Longitude Altitude Speed Heading
2026-04-22 19:18 38.72715 -93.55804 840 ft 0 kts 90°
2026-04-22 19:27 38.72715 -93.55763 841 ft 7 kts 90°
2026-04-22 19:27 38.72710 -93.55669 841 ft 11 kts 110°
2026-04-22 19:27 38.72656 -93.55648 841 ft 9 kts 180°
2026-04-22 19:27 38.72564 -93.55651 841 ft 14 kts 182°
2026-04-22 19:28 38.72463 -93.55658 841 ft 14 kts 183°
2026-04-22 19:28 38.72351 -93.55666 841 ft 21 kts 183°
2026-04-22 19:28 38.72160 -93.55680 841 ft 29 kts 183°
2026-04-22 19:28 38.72089 -93.55685 841 ft 0 kts 183°
2026-04-22 19:29 38.72083 -93.55685 841 ft 3 kts 183°
2026-04-22 19:30 38.72073 -93.55690 841 ft 1 kts 231°
2026-04-22 19:30 38.72080 -93.55710 841 ft 4 kts 340°
2026-04-22 19:30 38.72141 -93.55708 841 ft 19 kts
2026-04-22 19:30 38.72307 -93.55689 841 ft 25 kts
2026-04-22 19:31 38.72497 -93.55666 841 ft 30 kts
2026-04-22 19:31 38.72713 -93.55646 841 ft 30 kts
2026-04-22 19:31 38.72925 -93.55633 841 ft 26 kts
2026-04-22 19:31 38.73058 -93.55624 842 ft 18 kts
2026-04-22 19:32 38.73175 -93.55617 844 ft 16 kts
2026-04-22 19:32 38.73300 -93.55607 844 ft 24 kts
2026-04-22 19:32 38.73515 -93.55589 847 ft 28 kts
2026-04-22 19:32 38.73706 -93.55581 846 ft 27 kts
2026-04-22 19:33 38.73885 -93.55530 847 ft 25 kts 34°
2026-04-22 19:33 38.74021 -93.55391 852 ft 25 kts 39°
2026-04-22 19:33 38.74177 -93.55228 859 ft 28 kts 38°
2026-04-22 19:33 38.74323 -93.55075 867 ft 25 kts 40°
2026-04-22 19:34 38.74448 -93.54939 870 ft 22 kts 39°
2026-04-22 19:34 38.74562 -93.54817 874 ft 20 kts 39°
2026-04-22 19:34 38.74676 -93.54705 873 ft 19 kts 37°
2026-04-22 19:34 38.74719 -93.54584 873 ft 13 kts 91°
2026-04-22 19:35 38.74718 -93.54562 873 ft 0 kts 95°
2026-04-22 19:35 38.74718 -93.54559 873 ft 2 kts 96°
2026-04-22 19:35 38.74713 -93.54515 873 ft 10 kts 98°
2026-04-22 19:35 38.74686 -93.54395 871 ft 9 kts 144°
2026-04-22 19:36 38.74633 -93.54388 871 ft 6 kts 192°
2026-04-22 19:36 38.74561 -93.54408 872 ft 17 kts 192°
2026-04-22 19:36 38.74337 -93.54467 870 ft 57 kts 191°
2026-04-22 19:36 38.73763 -93.54606 859 ft 108 kts 190°
2026-04-22 19:37 38.72875 -93.54818 850 ft 148 kts 191°
2026-04-22 19:37 38.71863 -93.55065 1147 ft 151 kts 190°
2026-04-22 19:37 38.70807 -93.55330 1497 ft 155 kts 191°
2026-04-22 19:37 38.69787 -93.55619 1998 ft 175 kts 193°
2026-04-22 19:38 38.68674 -93.55960 3611 ft 147 kts 193°
2026-04-22 19:38 38.67759 -93.56178 4381 ft 134 kts 176°
2026-04-22 19:38 38.66822 -93.55579 4154 ft 173 kts 128°
2026-04-22 19:38 38.65993 -93.54426 4388 ft 185 kts 140°
2026-04-22 19:39 38.64983 -93.53365 4768 ft 192 kts 140°
2026-04-22 19:39 38.64310 -93.52657 5043 ft 196 kts 140°
2026-04-22 19:39 38.63206 -93.51489 5390 ft 208 kts 140°
2026-04-22 19:39 38.62056 -93.50270 5765 ft 221 kts 140°
2026-04-22 19:40 38.60854 -93.48994 6239 ft 231 kts 140°
2026-04-22 19:40 38.59580 -93.47641 6800 ft 239 kts 140°
2026-04-22 19:40 38.58296 -93.46278 7401 ft 245 kts 140°
2026-04-22 19:40 38.56966 -93.44867 8048 ft 250 kts 140°
2026-04-22 19:41 38.55618 -93.43438 8715 ft 254 kts 140°
2026-04-22 19:41 38.54268 -93.42007 9386 ft 256 kts 140°
2026-04-22 19:41 38.52900 -93.40557 10064 ft 258 kts 140°
2026-04-22 19:41 38.51519 -93.39095 10739 ft 259 kts 140°
2026-04-22 19:42 38.50135 -93.37631 11400 ft 259 kts 140°
2026-04-22 19:42 38.48751 -93.36167 12039 ft 265 kts 140°
2026-04-22 19:42 38.47286 -93.34618 12793 ft 285 kts 141°
2026-04-22 19:42 38.45747 -93.33020 13663 ft 301 kts 141°
2026-04-22 19:43 38.42491 -93.29619 15638 ft 321 kts 141°
2026-04-22 19:43 38.40798 -93.27837 16693 ft 328 kts 140°
2026-04-22 19:43 38.38992 -93.25936 17816 ft 333 kts 140°
2026-04-22 19:44 38.37184 -93.24032 18420 ft 353 kts 140°
2026-04-22 19:44 38.35217 -93.21963 18791 ft 381 kts 140°
2026-04-22 19:44 38.33158 -93.19801 18954 ft 385 kts 140°
2026-04-22 19:44 38.31138 -93.17679 18985 ft 367 kts 140°
2026-04-22 19:45 38.29175 -93.15617 18996 ft 365 kts 140°
2026-04-22 19:45 38.27207 -93.13550 19000 ft 371 kts 140°
2026-04-22 19:45 38.25225 -93.11471 19021 ft 374 kts 140°
2026-04-22 19:45 38.23185 -93.09334 19494 ft 379 kts 140°
2026-04-22 19:46 38.21169 -93.07224 20199 ft 378 kts 140°
2026-04-22 19:46 38.19136 -93.05097 20760 ft 381 kts 140°
2026-04-22 19:46 38.17080 -93.02948 21271 ft 384 kts 140°
2026-04-22 19:46 38.15010 -93.00785 21772 ft 387 kts 140°
2026-04-22 19:47 38.12904 -92.98586 22264 ft 390 kts 140°
2026-04-22 19:47 38.10822 -92.96415 22731 ft 393 kts 140°
2026-04-22 19:47 38.09412 -92.94945 23037 ft 395 kts 140°
2026-04-22 19:47 38.06551 -92.91964 23635 ft 398 kts 140°
2026-04-22 19:48 38.04414 -92.89739 24062 ft 401 kts 140°
2026-04-22 19:48 38.02248 -92.87488 24479 ft 404 kts 140°
2026-04-22 19:48 38.00069 -92.85222 24884 ft 406 kts 140°
2026-04-22 19:48 37.97887 -92.82956 25275 ft 409 kts 140°
2026-04-22 19:49 37.95654 -92.80639 25661 ft 411 kts 140°
2026-04-22 19:49 37.93449 -92.78353 26028 ft 413 kts 140°
2026-04-22 19:49 37.91209 -92.76032 26389 ft 416 kts 140°
2026-04-22 19:49 37.88969 -92.73712 26738 ft 418 kts 140°
2026-04-22 19:50 37.86703 -92.71366 27079 ft 420 kts 140°
2026-04-22 19:50 37.84452 -92.69037 27407 ft 422 kts 140°
2026-04-22 19:50 37.82161 -92.66670 27729 ft 425 kts 140°
2026-04-22 19:50 37.79882 -92.64317 28040 ft 427 kts 140°
2026-04-22 19:51 37.77575 -92.61938 28344 ft 429 kts 140°
2026-04-22 19:51 37.75241 -92.59534 28642 ft 431 kts 140°
2026-04-22 19:51 37.72901 -92.57124 28932 ft 433 kts 140°
2026-04-22 19:51 37.70578 -92.54735 29294 ft 438 kts 140°
2026-04-22 19:52 37.68201 -92.52290 29978 ft 441 kts 140°
2026-04-22 19:52 37.65810 -92.49833 30654 ft 444 kts 140°
2026-04-22 19:52 37.63412 -92.47371 31249 ft 448 kts 140°
2026-04-22 19:52 37.60977 -92.44874 31810 ft 452 kts 140°
2026-04-22 19:53 37.58535 -92.42371 32351 ft 456 kts 140°
2026-04-22 19:53 37.56063 -92.39841 32877 ft 460 kts 140°
2026-04-22 19:53 37.54426 -92.38167 33214 ft 462 kts 140°
2026-04-22 19:53 37.51103 -92.34771 33858 ft 468 kts 141°
2026-04-22 19:54 37.48536 -92.32174 33726 ft 486 kts 141°
2026-04-22 19:54 37.45735 -92.29552 33350 ft 506 kts 148°
2026-04-22 19:54 37.42677 -92.27579 33093 ft 502 kts 157°
2026-04-22 19:54 37.39433 -92.26071 33014 ft 485 kts 162°
2026-04-22 19:55 37.32981 -92.23748 33001 ft 484 kts 165°
2026-04-22 19:55 37.26515 -92.21605 33000 ft 489 kts 165°
2026-04-22 19:56 37.20034 -92.19444 32999 ft 487 kts 165°
2026-04-22 19:56 37.13456 -92.17233 32999 ft 487 kts 165°
2026-04-22 19:57 37.06869 -92.15015 32999 ft 488 kts 165°
2026-04-22 19:57 37.00293 -92.12804 32999 ft 487 kts 165°
2026-04-22 19:58 36.93720 -92.10597 32999 ft 487 kts 165°
2026-04-22 19:58 36.87188 -92.08408 32999 ft 487 kts 165°
2026-04-22 20:00 36.64307 -92.00773 32999 ft 487 kts 165°
2026-04-22 20:01 36.57724 -91.98585 32999 ft 487 kts 165°
2026-04-22 20:01 36.51129 -91.96397 32999 ft 487 kts 165°
2026-04-22 20:02 36.44549 -91.94218 32999 ft 487 kts 165°
2026-04-22 20:02 36.37952 -91.92037 32999 ft 487 kts 165°
2026-04-22 20:03 36.31376 -91.89867 32999 ft 487 kts 165°
2026-04-22 20:03 36.24840 -91.87714 32999 ft 487 kts 165°
2026-04-22 20:04 36.18239 -91.85542 32999 ft 487 kts 165°
2026-04-22 20:04 36.11622 -91.83370 32999 ft 487 kts 165°
2026-04-22 20:05 36.05074 -91.81224 32618 ft 484 kts 165°
2026-04-22 20:05 36.01809 -91.80154 32023 ft 480 kts 165°
2026-04-22 20:05 35.98583 -91.79099 31426 ft 477 kts 165°
2026-04-22 20:05 35.95380 -91.78050 30873 ft 473 kts 165°
2026-04-22 20:06 35.92223 -91.77020 30350 ft 469 kts 165°
2026-04-22 20:06 35.89061 -91.75987 29835 ft 465 kts 165°
2026-04-22 20:06 35.86026 -91.74723 29295 ft 462 kts 154°
2026-04-22 20:06 35.83255 -91.72661 28776 ft 458 kts 141°
2026-04-22 20:07 35.80985 -91.69950 28289 ft 455 kts 128°
2026-04-22 20:07 35.79261 -91.66734 27825 ft 451 kts 118°
2026-04-22 20:07 35.77877 -91.63284 27385 ft 448 kts 114°
2026-04-22 20:07 35.76605 -91.59764 26972 ft 445 kts 113°
2026-04-22 20:08 35.75383 -91.56313 26598 ft 441 kts 113°
2026-04-22 20:08 35.74142 -91.52834 26233 ft 438 kts 113°
2026-04-22 20:08 35.72918 -91.49445 26070 ft 436 kts 114°
2026-04-22 20:08 35.71670 -91.46030 26010 ft 427 kts 114°
2026-04-22 20:09 35.70459 -91.42741 25999 ft 420 kts 114°
2026-04-22 20:09 35.69237 -91.39436 26000 ft 423 kts 114°
2026-04-22 20:09 35.68012 -91.36131 26000 ft 425 kts 114°
2026-04-22 20:09 35.66778 -91.32824 26000 ft 425 kts 115°
2026-04-22 20:10 35.65526 -91.29517 25999 ft 424 kts 115°
2026-04-22 20:10 35.64271 -91.26200 25995 ft 424 kts 115°
2026-04-22 20:10 35.63021 -91.22878 25834 ft 426 kts 115°
2026-04-22 20:10 35.61792 -91.19600 25646 ft 421 kts 115°
2026-04-22 20:11 35.60586 -91.16375 25089 ft 414 kts 115°
2026-04-22 20:11 35.59378 -91.13138 24421 ft 412 kts 114°
2026-04-22 20:11 35.58375 -91.09889 23888 ft 404 kts 108°
2026-04-22 20:11 35.57327 -91.06695 23507 ft 395 kts 115°
2026-04-22 20:12 35.56131 -91.03679 23166 ft 386 kts 116°
2026-04-22 20:12 35.54950 -91.00772 23030 ft 375 kts 116°
2026-04-22 20:12 35.54184 -90.98865 23011 ft 379 kts 116°
2026-04-22 20:12 35.52626 -90.94913 23009 ft 388 kts 115°
2026-04-22 20:13 35.51462 -90.91924 23130 ft 383 kts 115°
2026-04-22 20:13 35.50332 -90.89011 22355 ft 377 kts 115°
2026-04-22 20:13 35.49277 -90.86054 21216 ft 377 kts 112°
2026-04-22 20:13 35.48306 -90.83106 20253 ft 372 kts 111°
2026-04-22 20:14 35.47354 -90.80190 19335 ft 367 kts 111°
2026-04-22 20:14 35.46410 -90.77328 18418 ft 362 kts 112°
2026-04-22 20:14 35.45459 -90.74470 17490 ft 357 kts 112°
2026-04-22 20:14 35.44529 -90.71687 16577 ft 352 kts 112°
2026-04-22 20:15 35.43610 -90.68945 15670 ft 347 kts 112°
2026-04-22 20:15 35.42700 -90.66234 14784 ft 341 kts 112°
2026-04-22 20:15 35.41823 -90.63621 14359 ft 322 kts 112°
2026-04-22 20:15 35.41007 -90.61109 13999 ft 304 kts 111°
2026-04-22 20:16 35.40273 -90.58807 13835 ft 282 kts 111°
2026-04-22 20:16 35.39606 -90.56608 13626 ft 264 kts 108°
2026-04-22 20:16 35.39028 -90.54532 13336 ft 251 kts 108°
2026-04-22 20:16 35.38477 -90.52524 12985 ft 242 kts 108°
2026-04-22 20:17 35.37945 -90.50586 12597 ft 236 kts 108°
2026-04-22 20:17 35.37432 -90.48711 12335 ft 232 kts 108°
2026-04-22 20:17 35.36922 -90.46848 12069 ft 228 kts 108°
2026-04-22 20:17 35.36419 -90.45008 11786 ft 225 kts 108°
2026-04-22 20:18 35.35924 -90.43195 11494 ft 223 kts 108°
2026-04-22 20:18 35.35425 -90.41369 11216 ft 226 kts 108°
2026-04-22 20:18 35.34902 -90.39452 10604 ft 263 kts 108°
2026-04-22 20:18 35.34260 -90.37094 9187 ft 318 kts 108°
2026-04-22 20:19 35.33543 -90.34457 7822 ft 336 kts 108°
2026-04-22 20:19 35.32793 -90.31698 6465 ft 350 kts 108°
2026-04-22 20:19 35.32023 -90.28861 5328 ft 346 kts 108°
2026-04-22 20:19 35.31292 -90.26165 4915 ft 320 kts 108°
2026-04-22 20:20 35.30596 -90.23595 3811 ft 322 kts 108°
2026-04-22 20:20 35.29955 -90.21220 4244 ft 267 kts 108°
2026-04-22 20:20 35.29393 -90.19132 3968 ft 252 kts 108°
2026-04-22 20:20 35.28852 -90.17130 3584 ft 245 kts 108°
2026-04-22 20:21 35.28305 -90.15105 3224 ft 250 kts 108°
2026-04-22 20:21 35.27521 -90.13287 2996 ft 244 kts 126°
2026-04-22 20:21 35.26483 -90.11636 2929 ft 242 kts 128°
2026-04-22 20:21 35.25452 -90.10034 2913 ft 240 kts 128°
2026-04-22 20:22 35.24451 -90.08375 2905 ft 240 kts 118°
2026-04-22 20:22 35.23636 -90.06616 2903 ft 240 kts 130°
2026-04-22 20:22 35.22309 -90.05372 2914 ft 241 kts 149°
2026-04-22 20:22 35.20856 -90.04312 2911 ft 240 kts 149°
2026-04-22 20:23 35.19429 -90.03270 2912 ft 232 kts 149°
2026-04-22 20:23 35.18054 -90.02267 2911 ft 231 kts 149°
2026-04-22 20:23 35.16675 -90.01260 2907 ft 229 kts 149°
2026-04-22 20:23 35.15289 -90.00251 2789 ft 228 kts 149°
2026-04-22 20:24 35.13961 -89.99263 2393 ft 216 kts 147°
2026-04-22 20:24 35.12689 -89.98416 2050 ft 195 kts 153°
2026-04-22 20:24 35.11492 -89.97797 1771 ft 177 kts 162°
2026-04-22 20:24 35.10323 -89.97559 1524 ft 170 kts 175°
2026-04-22 20:25 35.09174 -89.97421 1308 ft 162 kts 175°
2026-04-22 20:25 35.08047 -89.97372 1039 ft 161 kts 181°
2026-04-22 20:25 35.06923 -89.97343 787 ft 165 kts 178°
2026-04-22 20:25 35.05756 -89.97323 465 ft 164 kts 177°
2026-04-22 20:26 35.04655 -89.97289 294 ft 152 kts 179°
2026-04-22 20:26 35.03691 -89.97270 310 ft 111 kts 177°
2026-04-22 20:26 35.03125 -89.97259 315 ft 48 kts 178°
2026-04-22 20:26 35.02795 -89.97248 315 ft 46 kts 179°
2026-04-22 20:27 35.02586 -89.97236 318 ft 5 kts 150°
2026-04-22 20:27 35.02557 -89.97150 314 ft 17 kts 97°